• en Belgique
  • Liste des pays
  • À 7 jours
  • Température de l'eau
  • Carte satellitaire
  • Carte météo
  • Widgets météo
  • user-avatar
    Se connecter

    Météo par heure à Anvers

    Ce jour, 20 Août, Lundi

    Heure Température Précipitation Vent Pression Humidité
    00:00 +20°C° 0 mm 4 m/s 763 mmHg 85%
    01:00 +20°C° 0 mm 3 m/s 763 mmHg 87%
    02:00 +20°C° 0 mm 3 m/s 763 mmHg 89%
    03:00 +20°C° 0 mm 3 m/s 763 mmHg 91%
    04:00 +20°C° 0,1 mm 3 m/s 763 mmHg 91%
    05:00 +20°C° 0,1 mm 2 m/s 763 mmHg 92%
    06:00 +20°C° 0,1 mm 2 m/s 763 mmHg 92%
    07:00 +20°C° 0,1 mm 2 m/s 764 mmHg 90%
    08:00 +20°C° 0,1 mm 2 m/s 764 mmHg 89%
    09:00 +21°C° 0,1 mm 2 m/s 764 mmHg 87%
    10:00 +21°C° 0,1 mm 2 m/s 764 mmHg 85%
    11:00 +23°C° 0,1 mm 2 m/s 764 mmHg 82%
    12:00 +23°C° 0,1 mm 2 m/s 764 mmHg 80%
    13:00 +23°C° 0,1 mm 2 m/s 764 mmHg 79%
    14:00 +23°C° 0,1 mm 2 m/s 764 mmHg 77%
    15:00 +24°C° 0,1 mm 2 m/s 764 mmHg 76%
    16:00 +23°C° 0 mm 2 m/s 764 mmHg 78%
    17:00 +23°C° 0 mm 2 m/s 764 mmHg 79%
    18:00 +21°C° 0 mm 2 m/s 764 mmHg 81%
    19:00 +21°C° 0 mm 2 m/s 764 mmHg 82%
    20:00 +21°C° 0 mm 1 m/s 765 mmHg 84%
    21:00 +21°C° 0 mm 1 m/s 765 mmHg 85%
    22:00 +21°C° 0 mm 1 m/s 765 mmHg 85%
    23:00 +20°C° 0 mm 1 m/s 765 mmHg 86%

    Demain, 21 Août, Mardi

    Heure Température Précipitation Vent Pression Humidité
    00:00 +18°C° 0 mm 0 m/s 765 mmHg 86%
    01:00 +20°C° 0,1 mm 1 m/s 765 mmHg 87%
    02:00 +20°C° 0,1 mm 1 m/s 764 mmHg 88%
    03:00 +19°C° 0,1 mm 1 m/s 764 mmHg 88%
    04:00 +20°C° 0,1 mm 1 m/s 764 mmHg 88%
    05:00 +20°C° 0,1 mm 1 m/s 764 mmHg 87%
    06:00 +20°C° 0,1 mm 1 m/s 764 mmHg 87%
    07:00 +21°C° 0 mm 1 m/s 764 mmHg 81%
    08:00 +23°C° 0 mm 1 m/s 764 mmHg 75%
    09:00 +24°C° 0 mm 1 m/s 764 mmHg 69%
    10:00 +25°C° 0,1 mm 2 m/s 764 mmHg 65%
    11:00 +26°C° 0,1 mm 2 m/s 764 mmHg 61%
    12:00 +27°C° 0,1 mm 2 m/s 764 mmHg 57%
    13:00 +27°C° 0,1 mm 2 m/s 763 mmHg 58%
    14:00 +27°C° 0,1 mm 2 m/s 763 mmHg 59%
    15:00 +27°C° 0,1 mm 2 m/s 763 mmHg 59%
    16:00 +26°C° 0,1 mm 2 m/s 763 mmHg 64%
    17:00 +25°C° 0,1 mm 2 m/s 763 mmHg 69%
    18:00 +25°C° 0,1 mm 1 m/s 762 mmHg 73%
    19:00 +24°C° 0 mm 1 m/s 763 mmHg 76%
    20:00 +23°C° 0 mm 1 m/s 763 mmHg 79%
    21:00 +22°C° 0 mm 1 m/s 763 mmHg 83%
    22:00 +21°C° 0 mm 1 m/s 763 mmHg 84%
    23:00 +21°C° 0 mm 1 m/s 763 mmHg 86%

    Après-demain, 22 Août, Mercredi

    Heure Température Précipitation Vent Pression Humidité
    00:00 +20°C° 0 mm 1 m/s 763 mmHg 88%
    01:00 +20°C° 0 mm 1 m/s 763 mmHg 89%
    02:00 +20°C° 0 mm 1 m/s 762 mmHg 90%
    03:00 +19°C° 0 mm 1 m/s 762 mmHg 92%
    04:00 +18°C° 0 mm 2 m/s 762 mmHg 91%
    05:00 +19°C° 0 mm 2 m/s 762 mmHg 90%
    06:00 +19°C° 0 mm 2 m/s 762 mmHg 89%
    07:00 +20°C° 0 mm 2 m/s 762 mmHg 83%
    08:00 +22°C° 0 mm 3 m/s 762 mmHg 76%
    09:00 +24°C° 0 mm 3 m/s 762 mmHg 69%
    10:00 +25°C° 0 mm 3 m/s 762 mmHg 66%
    11:00 +26°C° 0 mm 3 m/s 762 mmHg 62%
    12:00 +26°C° 0 mm 3 m/s 762 mmHg 59%
    13:00 +26°C° 0 mm 3 m/s 762 mmHg 58%
    14:00 +27°C° 0 mm 3 m/s 761 mmHg 58%
    15:00 +27°C° 0 mm 3 m/s 761 mmHg 58%
    16:00 +26°C° 0 mm 3 m/s 761 mmHg 61%
    17:00 +25°C° 0 mm 2 m/s 761 mmHg 65%
    18:00 +24°C° 0 mm 2 m/s 761 mmHg 69%
    19:00 +23°C° 0 mm 2 m/s 761 mmHg 74%
    20:00 +21°C° 0 mm 2 m/s 761 mmHg 78%
    21:00 +20°C° 0 mm 1 m/s 762 mmHg 83%
    22:00 +19°C° 0 mm 2 m/s 761 mmHg 85%
    23:00 +19°C° 0 mm 2 m/s 761 mmHg 87%

    23 Août, Jeudi

    Heure Température Précipitation Vent Pression Humidité
    00:00 +18°C° 0 mm 2 m/s 761 mmHg 89%
    01:00 +18°C° 0 mm 2 m/s 761 mmHg 90%
    02:00 +17°C° 0 mm 2 m/s 760 mmHg 91%
    03:00 +17°C° 0 mm 3 m/s 760 mmHg 93%
    04:00 +17°C° 0 mm 3 m/s 760 mmHg 92%
    05:00 +18°C° 0 mm 3 m/s 760 mmHg 91%
    06:00 +18°C° 0 mm 3 m/s 760 mmHg 89%
    07:00 +19°C° 0 mm 3 m/s 760 mmHg 86%
    08:00 +20°C° 0 mm 4 m/s 760 mmHg 82%
    09:00 +21°C° 0 mm 4 m/s 760 mmHg 79%
    10:00 +22°C° 0,2 mm 4 m/s 760 mmHg 77%
    11:00 +22°C° 0,2 mm 4 m/s 759 mmHg 75%
    12:00 +23°C° 0,2 mm 4 m/s 759 mmHg 73%
    13:00 +22°C° 0,4 mm 4 m/s 759 mmHg 72%
    14:00 +22°C° 0,4 mm 5 m/s 759 mmHg 72%
    15:00 +22°C° 0,4 mm 5 m/s 759 mmHg 72%
    16:00 +21°C° 0,1 mm 4 m/s 758 mmHg 72%
    17:00 +20°C° 0,1 mm 3 m/s 758 mmHg 72%
    18:00 +19°C° 0,1 mm 3 m/s 758 mmHg 73%
    19:00 +18°C° 0 mm 3 m/s 758 mmHg 75%
    20:00 +17°C° 0 mm 3 m/s 759 mmHg 78%
    21:00 +16°C° 0 mm 3 m/s 759 mmHg 80%
    22:00 +14°C° 0 mm 4 m/s 759 mmHg 83%
    23:00 +14°C° 0 mm 4 m/s 759 mmHg 85%

    24 Août, Vendredi

    Heure Température Précipitation Vent Pression Humidité
    00:00 +14°C° 0 mm 4 m/s 758 mmHg 88%
    01:00 +14°C° 0,1 mm 4 m/s 758 mmHg 87%
    02:00 +14°C° 0,1 mm 4 m/s 758 mmHg 87%
    03:00 +14°C° 0,1 mm 4 m/s 758 mmHg 86%
    04:00 +14°C° 0,1 mm 4 m/s 758 mmHg 83%
    05:00 +14°C° 0,1 mm 4 m/s 758 mmHg 79%
    06:00 +14°C° 0,1 mm 4 m/s 759 mmHg 76%
    07:00 +14°C° 0,1 mm 4 m/s 759 mmHg 71%
    08:00 +15°C° 0,1 mm 4 m/s 759 mmHg 66%
    09:00 +16°C° 0,1 mm 5 m/s 759 mmHg 61%
    10:00 +16°C° 0,3 mm 5 m/s 759 mmHg 59%
    11:00 +17°C° 0,3 mm 6 m/s 759 mmHg 57%
    12:00 +17°C° 0,3 mm 6 m/s 760 mmHg 56%
    13:00 +17°C° 0,3 mm 6 m/s 760 mmHg 55%
    14:00 +17°C° 0,3 mm 6 m/s 760 mmHg 54%
    15:00 +17°C° 0,3 mm 5 m/s 760 mmHg 53%
    16:00 +17°C° 0 mm 5 m/s 760 mmHg 56%
    17:00 +17°C° 0 mm 4 m/s 760 mmHg 58%
    18:00 +16°C° 0 mm 3 m/s 760 mmHg 61%
    19:00 +14°C° 0 mm 3 m/s 760 mmHg 64%
    20:00 +13°C° 0 mm 3 m/s 761 mmHg 66%
    21:00 +12°C° 0 mm 3 m/s 761 mmHg 69%
    22:00 +12°C° 0,1 mm 3 m/s 761 mmHg 72%
    23:00 +12°C° 0,1 mm 3 m/s 761 mmHg 74%

    25 Août, Samedi

    Heure Température Précipitation Vent Pression Humidité
    00:00 +11°C° 0,1 mm 4 m/s 761 mmHg 76%
    01:00 +11°C° 0,6 mm 4 m/s 761 mmHg 79%
    02:00 +11°C° 0,6 mm 4 m/s 761 mmHg 81%
    03:00 +11°C° 0,6 mm 4 m/s 760 mmHg 84%
    04:00 +11°C° 0,6 mm 4 m/s 761 mmHg 84%
    05:00 +11°C° 0,6 mm 4 m/s 761 mmHg 84%
    06:00 +12°C° 0,6 mm 4 m/s 761 mmHg 84%
    07:00 +13°C° 0,6 mm 4 m/s 761 mmHg 78%
    08:00 +15°C° 0,6 mm 4 m/s 761 mmHg 72%
    09:00 +17°C° 0,6 mm 4 m/s 761 mmHg 65%
    10:00 +17°C° 0,3 mm 5 m/s 761 mmHg 62%
    11:00 +17°C° 0,3 mm 5 m/s 760 mmHg 59%
    12:00 +19°C° 0,3 mm 5 m/s 760 mmHg 56%
    13:00 +19°C° 0,2 mm 5 m/s 760 mmHg 55%
    14:00 +19°C° 0,2 mm 5 m/s 760 mmHg 54%
    15:00 +19°C° 0,2 mm 5 m/s 760 mmHg 52%
    16:00 +18°C° 0 mm 4 m/s 760 mmHg 56%
    17:00 +17°C° 0 mm 3 m/s 760 mmHg 59%
    18:00 +16°C° 0 mm 2 m/s 760 mmHg 63%
    19:00 +15°C° 0,1 mm 2 m/s 761 mmHg 66%
    20:00 +14°C° 0,1 mm 2 m/s 761 mmHg 70%
    21:00 +13°C° 0,1 mm 1 m/s 761 mmHg 74%
    22:00 +13°C° 0,2 mm 1 m/s 761 mmHg 75%
    23:00 +12°C° 0,2 mm 1 m/s 761 mmHg 77%
    Voir plus